{"data":{"norad_id":55591,"epoch":"2026-09-20T22:44:44.462976Z","epoch_age_seconds":61423,"freshness":"FRESH","line1":"1 55591U 23020Y   26263.94773684  .00000309  00000+0  20767-4 0  9996","line2":"2 55591  43.0062 342.6050 0002135 294.7969  65.2660 15.27577650198771","mean_motion":15.2757765,"eccentricity":0.0002135,"inclination_deg":43.0062,"raan_deg":342.605,"arg_perigee_deg":294.7969,"mean_anomaly_deg":65.266,"bstar":2.0767e-5,"rev_number":19877,"period_min":94.266893732047,"perigee_km":481.59126806023,"apogee_km":484.52099752793,"semimajor_km":6861.1931327941,"source":"CELESTRAK","updated_at":"2026-09-21T09:00:33.268533Z"}}